This is the latest recevied weather packets stored in our database for station/object K6CEG. If no packets are shown the sender has not sent any weather packets the latest 10 day(s).
| Time | Temp. | Humidity | Pressure | Rain* | Wind** | Luminosity | Snow |
|---|---|---|---|---|---|---|---|
| 1788564437 | 28.89° C | 41% | 1014.2 hPa | 0 mm | - | 34 W/m² | - |
| 1788564133 | 28.89° C | 41% | 1014.1 hPa | 0 mm | - | 34 W/m² | - |
| 1788563828 | 28.33° C | 42% | 1014.2 hPa | 0 mm | - | 35 W/m² | - |
| 1788563523 | 28.89° C | 42% | 1014.3 hPa | 0 mm | - | 35 W/m² | - |
| 1788563223 | 28.33° C | 43% | 1014 hPa | 0 mm | - | 35 W/m² | - |
| 1788562917 | 28.33° C | 44% | 1014.3 hPa | 0 mm | - | 36 W/m² | - |
| 1788562616 | 28.33° C | 44% | 1014.2 hPa | 0 mm | - | 114 W/m² | - |
| 1788562311 | 28.33° C | 44% | 1014.4 hPa | 0 mm | - | 39 W/m² | - |
| 1788562005 | 28.33° C | 44% | 1014.3 hPa | 0 mm | - | 40 W/m² | - |
| 1788561705 | 28.89° C | 45% | 1014.2 hPa | 0 mm | - | 42 W/m² | - |
| 1788561404 | 28.89° C | 45% | 1014.1 hPa | 0 mm | - | 42 W/m² | - |
| 1788561100 | 28.89° C | 44% | 1014.2 hPa | 0 mm | - | 90 W/m² | - |
| 1788560796 | 28.89° C | 43% | 1014.3 hPa | 0 mm | - | 44 W/m² | - |
| 1788560491 | 28.89° C | 44% | 1014.1 hPa | 0 mm | - | 43 W/m² | - |
| 1788560190 | 28.89° C | 44% | 1014.4 hPa | 0 mm | - | 44 W/m² | - |
| 1788559885 | 28.89° C | 44% | 1014.1 hPa | 0 mm | - | 43 W/m² | - |
| 1788559580 | 28.89° C | 44% | 1014.2 hPa | 0 mm | - | 193 W/m² | - |
| 1788559276 | 28.89° C | 45% | 1014.3 hPa | 0 mm | - | 49 W/m² | - |
| 1788558976 | 28.89° C | 44% | 1014.3 hPa | 0 mm | - | 46 W/m² | - |
| 1788558672 | 30° C | 43% | 1014.2 hPa | 0 mm | - | 56 W/m² | - |
| 1788558367 | 30° C | 41% | 1014.5 hPa | 0 mm | - | 108 W/m² | - |
| 1788558062 | 30° C | 40% | 1014.4 hPa | 0 mm | - | 527 W/m² | - |
| 1788557760 | 29.44° C | 43% | 1014.4 hPa | 0 mm | - | 410 W/m² | - |
| 1788557457 | 29.44° C | 43% | 1014.4 hPa | 0 mm | - | 364 W/m² | - |
| 1788557156 | 29.44° C | 42% | 1014.5 hPa | 0 mm | - | 377 W/m² | - |
* Rain latest hour (hover to see other rain measurements)
** Current wind speed in m/s (hover to see current wind gust speed)